[[{"header":{"parameterUnit":"m.s-1","parameterCategory":2,"la1":30.2992,"la2":30.254,"lo1":-89.0895,"lo2":-89.0443,"dy":0.0025,"dx":0.0025,"nx":19,"ny":19,"refTime":"2026-03-11T21:00:00:Z","depth":"0","parameterNumber":2,"parameterNumberName":"U-component_of_CURRENTS"},"data":[0,0,0,-0.1468,-0.1469,-0.1518,-0.1518,-0.1527,-0.1527,0,0,0,0,0,0,0,0,0,0,0,-0.1441,-0.1442,-0.1467,-0.1469,-0.1518,-0.1518,-0.1527,-0.1527,0,0,0,0,0,0,0,0,0,0,0,-0.1441,-0.1441,-0.1442,-0.1469,-0.1518,-0.1518,-0.1527,-0.1501,0,0,0,0,0,0,0,0,0,0,-0.1459,-0.144,-0.1441,-0.1442,-0.147,-0.1518,-0.1518,-0.15,-0.1503,-0.1492,0,-0.1501,0,-0.1521,-0.1527,-0.1527,0,0,0,-0.146,-0.1438,-0.1461,-0.1442,-0.147,-0.1518,-0.1493,-0.1502,-0.1504,-0.1494,-0.1501,-0.1502,-0.1521,-0.1527,-0.1527,-0.1542,-0.1542,0,0,-0.1458,-0.144,-0.1459,-0.1462,-0.1484,-0.1492,-0.1495,-0.1504,-0.15,-0.1501,-0.1503,-0.1521,-0.1527,-0.1527,-0.1542,-0.1542,0,0,0,-0.1456,-0.1438,-0.1461,-0.1461,-0.1478,-0.1493,-0.1497,-0.15,-0.151,-0.1503,-0.1521,-0.1527,-0.1527,-0.1542,-0.1542,-0.1543,0,0,0,-0.1454,-0.1438,-0.146,-0.1448,-0.1479,-0.1496,-0.1492,-0.1509,-0.1511,-0.1521,-0.1527,-0.1527,-0.1542,-0.1542,-0.1543,-0.1541,0,0,0,-0.1439,-0.1436,-0.1445,-0.1447,-0.1475,-0.1497,-0.1507,-0.151,-0.1522,-0.1527,-0.1527,-0.1542,-0.1542,-0.1542,-0.154,-0.1533,0,0,0,-0.1416,-0.1441,-0.1444,-0.1476,-0.1475,-0.1521,-0.1508,-0.1534,-0.1541,-0.1527,-0.1542,-0.1542,-0.1542,-0.154,-0.1533,-0.1442,-0.1435,0,0,-0.144,-0.1443,-0.1464,-0.147,-0.1512,-0.1513,-0.1543,-0.1544,-0.154,-0.1533,-0.1534,-0.1543,-0.154,-0.1533,-0.1463,-0.1455,0,0,0,-0.1468,-0.1475,-0.1492,-0.1513,-0.1545,-0.1551,-0.1562,-0.1557,-0.1551,-0.1548,-0.155,-0.1549,-0.1544,-0.1489,-0.1483,-0.1411,-0.1544,-0.1544,-0.1544,-0.1454,-0.1481,-0.1506,-0.1534,-0.1557,-0.1577,-0.1579,-0.1569,-0.1567,-0.1563,-0.1555,-0.1558,-0.15,-0.1494,-0.1422,-0.1562,-0.1562,-0.1562,-0.1563,-0.1466,-0.1472,-0.1499,-0.1531,-0.1546,-0.1563,-0.1576,-0.1573,-0.1563,-0.1561,-0.1556,-0.15,-0.1488,-0.1413,-0.1563,-0.1563,-0.1563,-0.1563,-0.1563,-0.1436,-0.1441,-0.1465,-0.1493,-0.1514,-0.1542,-0.1548,-0.1559,-0.1559,-0.156,-0.1493,-0.1491,-0.142,-0.1555,-0.1555,-0.1555,-0.1555,-0.1555,-0.1555,-0.1383,-0.1411,-0.1414,-0.1452,-0.1463,-0.1488,-0.1525,-0.1532,-0.1508,-0.1485,-0.1484,-0.1404,-0.1555,-0.1549,-0.1554,-0.1554,-0.1555,-0.1555,-0.1555,-0.1329,-0.1342,-0.1343,-0.1354,-0.1385,-0.137,-0.1442,-0.1423,-0.1437,-0.1405,-0.1298,-0.144,-0.1428,-0.1431,-0.1422,-0.1395,-0.1395,-0.1395,-0.1395,-0.127,-0.1286,-0.126,-0.126,-0.1274,-0.1305,-0.1249,-0.1243,-0.1207,-0.1153,-0.1194,-0.1165,-0.1174,-0.1147,-0.1157,-0.1142,-0.1045,-0.1044,-0.1044,-0.1213,-0.1222,-0.1174,-0.1191,-0.1207,-0.1209,-0.1107,-0.1017,-0.0992,-0.1027,-0.1113,-0.1128,-0.1086,-0.1107,-0.1067,-0.1087,-0.1064,0,0]},{"header":{"parameterUnit":"m.s-1","parameterCategory":2,"la1":30.2992,"la2":30.254,"lo1":-89.0895,"lo2":-89.0443,"dy":0.0025,"dx":0.0025,"nx":19,"ny":19,"refTime":"2026-03-11T21:00:00:Z","depth":"0","parameterNumber":3,"parameterNumberName":"V-component_of_CURRENTS"},"data":[0,0,0,-0.0198,-0.0197,-0.0146,-0.0145,-0.0076,-0.0075,0,0,0,0,0,0,0,0,0,0,0,-0.0215,-0.0215,-0.0198,-0.0197,-0.0146,-0.0145,-0.0076,-0.0075,0,0,0,0,0,0,0,0,0,0,0,-0.0215,-0.0215,-0.0215,-0.0197,-0.0146,-0.0145,-0.0076,-0.0113,0,0,0,0,0,0,0,0,0,0,-0.0163,-0.0184,-0.0215,-0.0215,-0.0197,-0.0146,-0.0145,-0.0115,-0.0111,-0.0102,0,-0.01,0,-0.0091,-0.0072,-0.0071,0,0,0,-0.0187,-0.0187,-0.0175,-0.0215,-0.0197,-0.0146,-0.0166,-0.0113,-0.0108,-0.0096,-0.0099,-0.0096,-0.009,-0.0071,-0.0071,-0.0052,-0.0052,0,0,-0.0189,-0.0202,-0.0178,-0.0172,-0.0191,-0.0168,-0.0165,-0.011,-0.0108,-0.0099,-0.0095,-0.0089,-0.0071,-0.007,-0.0052,-0.0052,0,0,0,-0.0205,-0.0204,-0.0192,-0.0175,-0.0169,-0.0167,-0.0163,-0.011,-0.0107,-0.0094,-0.0088,-0.007,-0.007,-0.0052,-0.0052,-0.0103,0,0,0,-0.0206,-0.0214,-0.0194,-0.02,-0.017,-0.014,-0.0164,-0.011,-0.0104,-0.0088,-0.007,-0.0069,-0.0051,-0.0052,-0.0101,-0.0127,0,0,0,-0.0216,-0.0215,-0.0212,-0.0201,-0.0184,-0.014,-0.0133,-0.0109,-0.0101,-0.0071,-0.0069,-0.0051,-0.0052,-0.0099,-0.0124,-0.0097,0,0,0,-0.0226,-0.024,-0.0212,-0.0225,-0.0185,-0.0174,-0.0133,-0.0116,-0.0095,-0.007,-0.0051,-0.0052,-0.0099,-0.0122,-0.0096,-0.0012,-0.001,0,0,-0.0254,-0.0244,-0.0253,-0.0227,-0.0236,-0.018,-0.0182,-0.0135,-0.0099,-0.0066,-0.0066,-0.0102,-0.0124,-0.0097,-0.0041,-0.0038,0,0,0,-0.0268,-0.0277,-0.0274,-0.0271,-0.0247,-0.0226,-0.0178,-0.0153,-0.0119,-0.009,-0.0098,-0.011,-0.0091,-0.0038,-0.0036,0.0066,-0.0054,-0.0054,-0.0054,-0.0319,-0.031,-0.033,-0.0316,-0.0304,-0.0256,-0.0233,-0.0189,-0.0153,-0.0147,-0.0148,-0.0161,-0.0106,-0.0103,-0.0,-0.0142,-0.0142,-0.0143,-0.0143,-0.0375,-0.0392,-0.0375,-0.0391,-0.0359,-0.0349,-0.0288,-0.0254,-0.0209,-0.019,-0.0168,-0.0092,-0.0104,0.0005,-0.0146,-0.0145,-0.0145,-0.0145,-0.0144,-0.0416,-0.0425,-0.0429,-0.0448,-0.0444,-0.0403,-0.0378,-0.0327,-0.0256,-0.0245,-0.0137,-0.0134,-0.0037,-0.0218,-0.0218,-0.0218,-0.0218,-0.0218,-0.0218,-0.0458,-0.0464,-0.0496,-0.0505,-0.0514,-0.0499,-0.0428,-0.0371,-0.0251,-0.0183,-0.0181,-0.0023,-0.0183,-0.0178,-0.0218,-0.0218,-0.0218,-0.0218,-0.0218,-0.0512,-0.0511,-0.0563,-0.0581,-0.0596,-0.0562,-0.0492,-0.0312,-0.0237,-0.0149,0.0042,-0.0125,-0.009,-0.009,-0.0082,-0.0095,-0.0095,-0.0095,-0.0095,-0.0546,-0.0551,-0.0617,-0.0653,-0.0665,-0.0596,-0.0439,-0.0244,0.0004,0.0134,0.0148,0.0187,0.0178,0.0231,0.0223,0.0239,0.0308,0.0308,0.0309,-0.0579,-0.0597,-0.0646,-0.068,-0.0695,-0.0604,-0.0402,-0.0105,0.0227,0.0332,0.0271,0.0254,0.0316,0.0293,0.0378,0.036,0.0385,0,0]}],[{"header":{"parameterUnit":"m.s-1","parameterCategory":2,"la1":30.2992,"la2":30.254,"lo1":-89.0895,"lo2":-89.0443,"dy":0.0025,"dx":0.0025,"nx":19,"ny":19,"refTime":"2026-03-11T21:00:00:Z","depth":"2","parameterNumber":2,"parameterNumberName":"U-component_of_CURRENTS"},"data":[0,0,0,-0.1284,-0.1284,-0.1323,-0.1323,-0.1347,-0.1347,0,0,0,0,0,0,0,0,0,0,0,-0.1265,-0.1265,-0.1283,-0.1285,-0.1323,-0.1323,-0.1347,-0.1347,0,0,0,0,0,0,0,0,0,0,0,-0.1264,-0.1265,-0.1265,-0.1285,-0.1323,-0.1323,-0.1347,-0.1324,0,0,0,0,0,0,0,0,0,0,-0.1289,-0.1272,-0.1265,-0.1265,-0.1285,-0.1323,-0.1324,-0.1323,-0.1325,-0.1323,0,-0.1329,0,-0.1342,-0.1349,-0.1349,0,0,0,-0.1281,-0.127,-0.1286,-0.1265,-0.1285,-0.1323,-0.1305,-0.1324,-0.1327,-0.1326,-0.1329,-0.1331,-0.1343,-0.1349,-0.1349,-0.1379,-0.138,0,0,-0.1279,-0.1267,-0.1284,-0.1288,-0.1295,-0.1304,-0.1306,-0.1326,-0.1324,-0.1329,-0.1331,-0.1343,-0.1349,-0.1349,-0.1379,-0.1379,0,0,0,-0.1275,-0.1265,-0.1281,-0.1286,-0.1298,-0.1305,-0.1308,-0.1323,-0.133,-0.1332,-0.1343,-0.1349,-0.1349,-0.1379,-0.1379,-0.1389,0,0,0,-0.1274,-0.1263,-0.128,-0.1272,-0.1297,-0.1314,-0.1305,-0.1329,-0.1332,-0.1343,-0.1349,-0.1349,-0.1379,-0.1379,-0.1388,-0.139,0,0,0,-0.1263,-0.1262,-0.1267,-0.1271,-0.1291,-0.1314,-0.1322,-0.133,-0.1339,-0.1349,-0.135,-0.1379,-0.1379,-0.1387,-0.1389,-0.1381,0,0,0,-0.1247,-0.1264,-0.1267,-0.129,-0.129,-0.1331,-0.1322,-0.1349,-0.136,-0.1349,-0.1379,-0.1379,-0.1387,-0.1388,-0.138,-0.1275,-0.1268,0,0,-0.1263,-0.1265,-0.1282,-0.1286,-0.1322,-0.1325,-0.1358,-0.1366,-0.1364,-0.1369,-0.137,-0.1388,-0.1389,-0.1381,-0.1302,-0.1293,0,0,0,-0.1284,-0.129,-0.1304,-0.1323,-0.1351,-0.1366,-0.138,-0.1381,-0.1387,-0.1374,-0.1395,-0.1395,-0.1389,-0.1326,-0.132,-0.1381,-0.1381,-0.1381,-0.1381,-0.1272,-0.1296,-0.1318,-0.1345,-0.1369,-0.1396,-0.1407,-0.1408,-0.1406,-0.1409,-0.1408,-0.1415,-0.1348,-0.1342,-0.1415,-0.1415,-0.1415,-0.1415,-0.1415,-0.1281,-0.1286,-0.1317,-0.1346,-0.1371,-0.1395,-0.1421,-0.1423,-0.1426,-0.1422,-0.1416,-0.1345,-0.1336,-0.1416,-0.1415,-0.1415,-0.1415,-0.1415,-0.1415,-0.1255,-0.1261,-0.1285,-0.1318,-0.135,-0.1386,-0.1402,-0.1424,-0.1428,-0.1432,-0.1348,-0.1346,-0.141,-0.1424,-0.1424,-0.1424,-0.1424,-0.1424,-0.1424,-0.1209,-0.1237,-0.1244,-0.1288,-0.1304,-0.1339,-0.1387,-0.1393,-0.1368,-0.1347,-0.1346,-0.1418,-0.1417,-0.141,-0.1423,-0.1423,-0.1423,-0.1423,-0.1423,-0.116,-0.1175,-0.1182,-0.1197,-0.1238,-0.122,-0.1298,-0.1269,-0.1286,-0.1246,-0.1292,-0.1296,-0.1278,-0.1282,-0.1271,-0.1248,-0.1248,-0.1248,-0.1248,-0.111,-0.1125,-0.111,-0.1116,-0.1133,-0.1158,-0.1079,-0.1057,-0.1087,-0.1079,-0.1086,-0.1058,-0.1069,-0.1039,-0.1048,-0.1033,-0.0947,-0.0947,-0.0947,-0.1061,-0.107,-0.1032,-0.1052,-0.1069,-0.1056,-0.0917,-0.0788,-0.0808,-0.0937,-0.106,-0.1223,-0.1201,-0.121,-0.1181,-0.1189,-0.117,0,0]},{"header":{"parameterUnit":"m.s-1","parameterCategory":2,"la1":30.2992,"la2":30.254,"lo1":-89.0895,"lo2":-89.0443,"dy":0.0025,"dx":0.0025,"nx":19,"ny":19,"refTime":"2026-03-11T21:00:00:Z","depth":"2","parameterNumber":3,"parameterNumberName":"V-component_of_CURRENTS"},"data":[0,0,0,-0.025,-0.0249,-0.0212,-0.0212,-0.0148,-0.0148,0,0,0,0,0,0,0,0,0,0,0,-0.0261,-0.0261,-0.025,-0.0249,-0.0212,-0.0212,-0.0148,-0.0148,0,0,0,0,0,0,0,0,0,0,0,-0.0261,-0.0261,-0.026,-0.0249,-0.0213,-0.0212,-0.0148,-0.0178,0,0,0,0,0,0,0,0,0,0,-0.0215,-0.0232,-0.0261,-0.026,-0.0249,-0.0213,-0.0212,-0.0179,-0.0176,-0.0163,0,-0.0163,0,-0.0158,-0.0144,-0.0144,0,0,0,-0.0239,-0.0235,-0.0226,-0.026,-0.0249,-0.0213,-0.0226,-0.0177,-0.0174,-0.0158,-0.0162,-0.016,-0.0157,-0.0143,-0.0143,-0.0107,-0.0107,0,0,-0.0241,-0.025,-0.0229,-0.0224,-0.0246,-0.0227,-0.0225,-0.0175,-0.0173,-0.0162,-0.0158,-0.0156,-0.0143,-0.0143,-0.0107,-0.0107,0,0,0,-0.0254,-0.0252,-0.0244,-0.0226,-0.0224,-0.0227,-0.0224,-0.0175,-0.0173,-0.0157,-0.0155,-0.0143,-0.0142,-0.0107,-0.0107,-0.0151,0,0,0,-0.0254,-0.026,-0.0245,-0.0249,-0.0225,-0.0202,-0.0225,-0.0177,-0.0171,-0.0156,-0.0143,-0.0141,-0.0107,-0.0107,-0.015,-0.0176,0,0,0,-0.0261,-0.026,-0.0258,-0.025,-0.0239,-0.0203,-0.0197,-0.0175,-0.017,-0.0143,-0.0141,-0.0107,-0.0107,-0.0149,-0.0173,-0.0159,0,0,0,-0.0267,-0.0283,-0.0259,-0.0274,-0.024,-0.0233,-0.0198,-0.0184,-0.0166,-0.0142,-0.0107,-0.0107,-0.0148,-0.0172,-0.0158,-0.0125,-0.0127,0,0,-0.0295,-0.0286,-0.0296,-0.0274,-0.0284,-0.0236,-0.0234,-0.0194,-0.016,-0.0121,-0.012,-0.015,-0.0173,-0.0158,-0.013,-0.0131,0,0,0,-0.031,-0.0318,-0.0316,-0.0314,-0.0295,-0.0273,-0.023,-0.0205,-0.0167,-0.0151,-0.0139,-0.0152,-0.0142,-0.012,-0.0121,-0.0108,-0.0108,-0.0108,-0.0108,-0.0356,-0.0348,-0.0365,-0.0352,-0.034,-0.0295,-0.027,-0.0224,-0.019,-0.0178,-0.018,-0.0189,-0.0167,-0.0168,-0.0166,-0.0166,-0.0167,-0.0167,-0.0167,-0.0406,-0.0421,-0.0402,-0.0418,-0.0384,-0.0371,-0.0307,-0.0274,-0.0226,-0.0206,-0.0192,-0.0158,-0.0171,-0.017,-0.0169,-0.0169,-0.0169,-0.0168,-0.0168,-0.0442,-0.0449,-0.0453,-0.0467,-0.0459,-0.0418,-0.0393,-0.0337,-0.0271,-0.0261,-0.0202,-0.0201,-0.0212,-0.0244,-0.0244,-0.0244,-0.0244,-0.0244,-0.0244,-0.048,-0.0483,-0.0512,-0.0518,-0.0525,-0.051,-0.0442,-0.0396,-0.0303,-0.0246,-0.0245,-0.0215,-0.0212,-0.0215,-0.0245,-0.0245,-0.0244,-0.0244,-0.0244,-0.0529,-0.0528,-0.0574,-0.0591,-0.0603,-0.0582,-0.0518,-0.0391,-0.033,-0.027,-0.022,-0.022,-0.0197,-0.0195,-0.0196,-0.0219,-0.0219,-0.0219,-0.0219,-0.056,-0.0564,-0.0623,-0.0657,-0.0672,-0.0618,-0.0523,-0.0378,-0.0252,-0.0194,-0.0195,-0.0179,-0.018,-0.0155,-0.0153,-0.0153,-0.0165,-0.0165,-0.0165,-0.059,-0.0606,-0.0651,-0.0683,-0.0702,-0.064,-0.0518,-0.0305,-0.0144,-0.0165,-0.0201,-0.0212,-0.0191,-0.0192,-0.0153,-0.0152,-0.0151,0,0]}],[{"header":{"parameterUnit":"m.s-1","parameterCategory":2,"la1":30.2992,"la2":30.254,"lo1":-89.0895,"lo2":-89.0443,"dy":0.0025,"dx":0.0025,"nx":19,"ny":19,"refTime":"2026-03-11T21:00:00:Z","depth":"4","parameterNumber":2,"parameterNumberName":"U-component_of_CURRENTS"},"data":[0,0,0,-0.0945,-0.0947,-0.1017,-0.1018,-0.1081,-0.1081,0,0,0,0,0,0,0,0,0,0,0,-0.0923,-0.0924,-0.0945,-0.0947,-0.1017,-0.1018,-0.1081,-0.1081,0,0,0,0,0,0,0,0,0,0,0,-0.0923,-0.0924,-0.0924,-0.0947,-0.1017,-0.1018,-0.1081,-0.1035,0,0,0,0,0,0,0,0,0,0,-0.097,-0.0954,-0.0923,-0.0924,-0.0947,-0.1017,-0.1018,-0.1033,-0.1038,-0.104,0,-0.1054,0,-0.1067,-0.1085,-0.1085,0,0,0,-0.0949,-0.095,-0.0967,-0.0924,-0.0948,-0.1017,-0.0986,-0.1036,-0.1041,-0.1046,-0.1055,-0.1058,-0.1068,-0.1085,-0.1085,-0.1148,-0.1148,0,0,-0.0946,-0.0938,-0.0963,-0.097,-0.097,-0.0984,-0.0988,-0.1039,-0.1047,-0.1055,-0.1059,-0.1069,-0.1085,-0.1086,-0.1147,-0.1148,0,0,0,-0.0933,-0.0935,-0.0951,-0.0967,-0.0981,-0.0986,-0.0991,-0.1045,-0.105,-0.106,-0.1069,-0.1086,-0.1086,-0.1147,-0.1147,-0.1165,0,0,0,-0.093,-0.0928,-0.095,-0.0946,-0.0981,-0.1018,-0.0996,-0.1046,-0.1053,-0.1069,-0.1086,-0.1087,-0.1147,-0.1147,-0.1164,-0.1167,0,0,0,-0.0919,-0.0926,-0.0935,-0.0946,-0.0975,-0.1018,-0.1026,-0.1048,-0.1058,-0.1085,-0.1087,-0.1146,-0.1147,-0.1163,-0.1166,-0.1163,0,0,0,-0.0908,-0.0924,-0.0935,-0.0961,-0.0974,-0.1022,-0.1026,-0.1068,-0.1094,-0.1086,-0.1147,-0.1147,-0.1162,-0.1165,-0.1162,-0.1002,0,0,0,-0.0919,-0.0926,-0.0941,-0.0952,-0.0993,-0.1012,-0.1061,-0.1096,-0.1104,-0.1127,-0.1129,-0.1164,-0.1166,-0.1163,-0.1047,0,0,0,0,-0.0938,-0.0948,-0.0964,-0.0992,-0.1027,-0.1065,-0.1099,-0.1114,-0.115,-0.1122,-0.1174,-0.1175,-0.1172,-0.1077,-0.1151,-0.1151,-0.1151,-0.1151,-0.1151,-0.0932,-0.0955,-0.0984,-0.102,-0.1055,-0.1107,-0.1138,-0.1164,-0.117,-0.1189,-0.1197,-0.1217,-0.1119,-0.1208,-0.1208,-0.1208,-0.1208,-0.1208,-0.1208,-0.0937,-0.0947,-0.0994,-0.1033,-0.108,-0.1126,-0.1178,-0.1193,-0.1223,-0.1223,-0.1219,-0.1113,-0.121,-0.121,-0.1209,-0.1209,-0.1209,-0.1209,-0.1209,-0.0914,-0.0921,-0.0962,-0.1019,-0.1079,-0.1138,-0.117,-0.1216,-0.1235,-0.1246,-0.1132,-0.1225,-0.1214,-0.1242,-0.1242,-0.1242,-0.1242,-0.1242,-0.1242,-0.0865,-0.0905,-0.0934,-0.1003,-0.104,-0.1096,-0.1168,-0.1175,-0.1209,-0.1133,-0.1248,-0.1228,-0.1227,-0.1216,-0.1242,-0.1242,-0.1242,-0.1242,-0.1242,-0.0814,-0.0845,-0.0874,-0.0912,-0.0984,-0.1009,-0.1104,-0.1074,-0.1066,-0.102,-0.1066,-0.1074,-0.1048,-0.1052,-0.1033,-0.1006,-0.1004,-0.1002,0,-0.077,-0.079,-0.0815,-0.0843,-0.0866,-0.0945,-0.0898,-0.0921,-0.0938,-0.0904,-0.107,-0.1123,-0.1127,-0.1101,-0.1101,-0.1079,0,0,0,-0.0731,-0.0747,-0.0738,-0.078,-0.0798,-0.0807,-0.0874,-0.0831,-0.0949,-0.0882,-0.0953,-0.0966,-0.1142,-0.1243,-0.1224,-0.1223,-0.1203,0,0]},{"header":{"parameterUnit":"m.s-1","parameterCategory":2,"la1":30.2992,"la2":30.254,"lo1":-89.0895,"lo2":-89.0443,"dy":0.0025,"dx":0.0025,"nx":19,"ny":19,"refTime":"2026-03-11T21:00:00:Z","depth":"4","parameterNumber":3,"parameterNumberName":"V-component_of_CURRENTS"},"data":[0,0,0,-0.0196,-0.0196,-0.0185,-0.0185,-0.0139,-0.0139,0,0,0,0,0,0,0,0,0,0,0,-0.0199,-0.0199,-0.0196,-0.0196,-0.0185,-0.0185,-0.014,-0.0139,0,0,0,0,0,0,0,0,0,0,0,-0.0199,-0.0199,-0.0199,-0.0196,-0.0185,-0.0185,-0.014,-0.0154,0,0,0,0,0,0,0,0,0,0,-0.0168,-0.0179,-0.0199,-0.0199,-0.0196,-0.0185,-0.0185,-0.0155,-0.0153,-0.0138,0,-0.0142,0,-0.0143,-0.0136,-0.0136,0,0,0,-0.0188,-0.0181,-0.0178,-0.0199,-0.0196,-0.0185,-0.0188,-0.0154,-0.0152,-0.0136,-0.0141,-0.014,-0.0142,-0.0136,-0.0136,-0.0095,-0.0095,0,0,-0.0189,-0.0194,-0.018,-0.0177,-0.02,-0.0188,-0.0188,-0.0153,-0.0153,-0.0141,-0.0139,-0.0141,-0.0135,-0.0135,-0.0096,-0.0095,0,0,0,-0.0196,-0.0195,-0.0193,-0.0179,-0.0181,-0.0188,-0.0187,-0.0154,-0.0154,-0.0139,-0.0141,-0.0135,-0.0135,-0.0096,-0.0095,-0.0131,0,0,0,-0.0196,-0.0199,-0.0193,-0.0196,-0.0182,-0.0172,-0.0189,-0.0156,-0.0153,-0.0141,-0.0135,-0.0134,-0.0096,-0.0096,-0.013,-0.0154,0,0,0,-0.0198,-0.0199,-0.02,-0.0196,-0.0195,-0.0173,-0.0171,-0.0155,-0.0154,-0.0136,-0.0134,-0.0096,-0.0096,-0.013,-0.0153,-0.0147,0,0,0,-0.02,-0.0216,-0.0201,-0.0217,-0.0195,-0.0196,-0.0171,-0.0167,-0.0155,-0.0135,-0.0096,-0.0095,-0.0129,-0.0152,-0.0147,-0.0151,0,0,0,-0.0223,-0.0219,-0.0229,-0.0215,-0.0229,-0.0197,-0.0196,-0.017,-0.0143,-0.0104,-0.0103,-0.013,-0.0152,-0.0147,-0.0137,0,0,0,0,-0.0239,-0.0247,-0.0248,-0.0251,-0.0241,-0.0226,-0.0197,-0.0174,-0.0141,-0.0136,-0.0115,-0.0128,-0.0124,-0.0123,-0.0094,-0.0094,-0.0094,-0.0094,-0.0094,-0.0273,-0.027,-0.0287,-0.028,-0.0274,-0.0242,-0.0223,-0.0182,-0.0156,-0.0142,-0.0146,-0.0152,-0.0152,-0.0127,-0.0127,-0.0128,-0.0128,-0.0128,-0.0128,-0.0311,-0.0322,-0.0313,-0.0331,-0.0308,-0.03,-0.0245,-0.0219,-0.0178,-0.0158,-0.0151,-0.0147,-0.0131,-0.013,-0.013,-0.013,-0.0129,-0.0129,-0.0129,-0.0334,-0.0339,-0.0351,-0.037,-0.0368,-0.0339,-0.0321,-0.0273,-0.0217,-0.021,-0.0189,-0.0169,-0.0178,-0.0201,-0.0201,-0.0201,-0.0201,-0.0201,-0.0201,-0.0353,-0.0363,-0.0394,-0.0408,-0.0422,-0.0415,-0.0365,-0.0332,-0.0273,-0.023,-0.0219,-0.0176,-0.0174,-0.0181,-0.0202,-0.0202,-0.0202,-0.0202,-0.0202,-0.0381,-0.0388,-0.0433,-0.0457,-0.0481,-0.0469,-0.0431,-0.035,-0.0314,-0.0268,-0.0228,-0.0226,-0.0212,-0.0208,-0.0217,-0.0249,-0.0249,-0.0249,0,-0.0397,-0.0404,-0.0464,-0.0502,-0.0519,-0.0496,-0.0445,-0.0393,-0.0314,-0.0309,-0.0317,-0.0276,-0.0272,-0.026,-0.0257,-0.0269,0,0,0,-0.0414,-0.0431,-0.0472,-0.0512,-0.0533,-0.0466,-0.0427,-0.0395,-0.0326,-0.0286,-0.0253,-0.0252,-0.025,-0.0206,-0.0179,-0.0176,-0.0187,0,0]}]]